Temp
59 53 50 57 60 62 57 57 54 62 70 67 66 67 73 78 78 77 78 80 81 83 88 91 91 92 92 91 90 89 85 81 73 70 69 68 69 67 72 71 76 77 75 71
55 49 60 64 64 59 56 42 48 60 66 66 66 64 72 76 77 78 78 78 81 83 86 88 90 90 90 89 87 87 86 83 75 71 73 74 73 71 76 75 76 76 75 72
51 57 63 61 60 55 52 46 50 53 59 62 62 59 63 72 75 78 79 80 82 82 81 83 84 86 88 88 86 87 87 85 75 74 77 78 76 73 72 70 75 72 72 70
56 63 60 58 56 59 48 58 54 53 49 43 63 48 63 68 71 74 76 75 76 77 79 80 81 82 85 86 88 86 87 86 75 77 79 77 75 70 73 74 75 69 67 63
52 57 57 55 56 59 54 60 55 53 53 53 54 51 59 68 64 70 71 72 73 75 76 77 79 82 84 86 87 85 85 86 73 77 80 77 76 76 76 76 71 63 63 64
55 65 62 59 60 59 60 55 56 56 53 42 53 53 53 58 64 66 68 70 72 73 74 76 78 80 82 85 85 84 82 80 73 73 78 76 76 77 75 73 67 65 62 60
49 48 62 61 54 56 54 48 37 34 37 39 56 51 56 64 65 64 65 69 72 73 72 72 73 75 75 79 83 83 81 73 70 68 76 77 77 77 75 72 68 63 60 60
38 37 52 57 53 48 51 49 38 31 34 41 55 46 56 68 68 69 69 70 70 71 70 69 69 68 70 76 81 82 79 70 67 67 75 77 78 77 76 73 69 66 61 61
40 41 53 57 59 57 50 45 54 41 47 44 50 55 61 66 66 67 67 66 62 67 66 65 64 63 68 67 79 80 71 68 66 66 73 75 76 75 75 72 70 67 66 63
53 37 52 55 60 59 54 57 43 47 33 35 47 49 47 54 57 63 63 62 60 64 63 60 58 56 61 63 80 79 69 67 66 66 69 72 75 73 74 71 67 67 69 64
55 47 46 53 49 49 52 48 51 51 46 37 35 43 58 57 60 60 59 59 59 59 57 54 50 50 55 56 79 72 68 66 64 64 65 67 73 72 72 70 70 67 67 65
56 48 41 46 58 55 57 51 51 41 40 45 42 41 61 62 63 59 58 56 58 56 54 51 45 45 47 47 56 65 65 63 64 63 64 64 67 70 67 67 70 69 68 68
53 47 39 39 49 53 51 53 56 52 48 42 38 41 63 63 59 54 52 49 51 52 52 48 42 41 43 44 46 51 61 61 62 63 63 63 64 66 65 66 67 67 66 66
50 49 46 38 43 51 46 52 53 51 44 45 47 50 55 53 52 46 44 44 45 45 47 46 40 39 41 42 43 44 47 53 60 61 62 63 63 64 64 67 68 67 68 67
46 38 39 49 54 53 50 48 50 47 50 43 48 50 49 48 45 43 43 42 41 40 40 40 38 38 38 39 40 41 42 44 48 49 51 55 62 63 64 63 66 68 68 67
46 41 45 44 51 51 47 50 50 50 50 50 51 47 56 52 49 43 40 38 37 37 36 36 36 37 37 38 38 39 41 41 43 42 43 47 49 49 50 52 53 61 59 58
44 44 41 37 47 48 39 47 50 52 53 52 45 49 54 45 40 38 38 37 36 36 35 33 33 33 35 35 37 36 37 40 41 41 41 42 44 45 45 47 47 46 45 45
44 45 45 38 42 32 46 56 55 51 50 51 53 51 52 41 35 35 36 35 34 35 36 34 32 33 33 36 37 36 38 37 38 37 38 40 41 41 43 43 43 41 41 39
50 46 41 38 39 43 46 48 48 47 41 49 48 49 44 39 37 32 34 34 34 34 41 41 39 33 33 33 35 37 36 36 36 33 34 37 38 38 41 40 40 39 37 36
51 50 45 41 35 29 36 47 55 55 38 45 48 44 40 40 36 30 33 33 34 37 42 41 42 40 38 36 35 35 35 34 33 33 35 34 36 37 37 38 38 38 36 35
41 41 37 39 37 37 36 46 52 39 31 42 43 40 36 31 31 32 33 32 34 43 44 44 42 39 38 40 37 34 35 32 32 35 37 36 34 37 39 39 39 39 38 38
38 34 36 39 36 29 37 46 36 32 36 38 39 39 35 34 33 32 32 31 32 35 43 44 42 38 38 38 38 34 33 37 37 36 35 38 38 38 40 38 37 39 39 38
34 37 33 32 29 34 37 35 36 37 34 35 36 38 38 34 31 31 30 31 33 40 43 45 43 39 38 37 37 35 34 36 38 36 34 32 36 36 36 36 37 36 36 35
40 46 34 33 33 35 37 39 38 37 34 36 39 39 40 35 34 33 34 36 38 41 41 43 41 39 37 38 37 36 38 39 36 36 36 34 32 32 32 34 32 30 32 32
40 43 37 32 35 36 37 36 37 38 40 40 41 41 41 41 40 41 40 40 40 41 41 41 38 36 36 36 35 37 38 40 39 37 36 34 33 31 28 27 29 29 28 29
40 33 33 30 33 34 32 34 36 34 34 39 40 40 41 41 40 40 38 38 38 37 37 37 36 34 33 33 31 32 35 37 37 35 35 34 35 35 34 30 26 28 28 29
MSLP
1004.18 1003.75 1001.25 1000.13 1000.45 1000.19 1000.34 999.69 999.38 998.36 997.51 997.03 996.84 996.70 995.98 995.92 996.32 996.69 996.77 996.88 997.11 997.24 997.36 997.43 997.74 998.00 998.33 999.33 999.83 1000.49 1001.50 1002.83 1004.55 1005.49 1005.98 1006.74 1007.03 1007.81 1008.02 1008.25 1008.37 1008.52 1009.05 1009.76
1002.43 1001.18 1000.24 1000.47 1000.02 1000.43 1000.67 1002.43 1001.75 1000.01 998.96 998.25 997.09 996.66 996.18 995.55 995.34 995.90 996.32 996.71 996.93 997.01 997.08 997.15 997.32 997.60 997.89 998.36 999.54 1000.03 1000.67 1001.97 1003.64 1004.85 1005.38 1006.04 1006.52 1007.10 1007.20 1007.64 1007.90 1008.14 1008.57 1009.28
1000.52 999.59 1000.27 999.88 999.59 999.92 1001.32 1002.25 1001.63 1000.61 1000.28 999.39 998.24 997.20 996.67 995.73 995.54 995.76 996.12 996.60 996.64 996.69 997.02 997.32 997.54 997.70 997.78 997.95 998.93 999.60 1000.13 1001.02 1002.90 1004.18 1004.76 1005.09 1005.75 1006.46 1006.80 1007.25 1007.52 1007.91 1008.48 1009.09
999.36 999.01 998.64 999.02 999.07 999.61 1000.16 1001.39 1001.88 1001.74 1001.60 1000.26 998.12 996.39 994.99 994.72 994.77 994.98 995.62 996.33 997.24 997.97 998.33 998.51 998.42 998.26 997.94 997.80 998.01 999.04 999.50 1000.20 1002.28 1003.17 1003.17 1003.65 1004.57 1005.30 1005.79 1006.26 1006.89 1007.92 1008.77 1009.21
998.91 998.30 998.26 998.38 998.89 999.76 999.76 1000.73 1001.67 1001.97 1000.78 999.53 998.32 997.25 995.23 994.64 994.84 995.14 996.52 997.59 998.39 998.65 998.90 998.93 998.62 998.24 997.87 997.38 997.46 998.31 999.11 999.57 1001.61 1002.26 1002.22 1003.19 1003.77 1004.28 1004.85 1005.46 1006.38 1007.84 1008.63 1008.90
998.90 998.45 998.29 998.59 999.43 1000.25 1000.94 1001.32 1001.17 1001.23 1000.59 999.12 997.73 996.81 995.34 995.20 995.11 996.18 997.56 998.21 998.72 999.13 999.63 999.45 999.00 998.60 997.91 997.38 997.16 997.62 998.69 999.52 1001.29 1001.89 1001.98 1002.61 1003.14 1003.36 1004.11 1005.28 1006.20 1007.34 1008.35 1008.80
999.25 999.36 998.36 999.16 999.78 1000.86 1001.19 1001.34 1001.38 1001.14 999.87 998.07 996.68 996.56 995.45 995.81 996.67 997.58 998.37 998.46 998.79 999.35 999.90 999.95 999.62 999.27 998.83 997.53 997.00 997.20 998.40 999.77 1001.22 1001.94 1001.95 1002.19 1002.61 1003.03 1003.78 1004.98 1005.84 1007.09 1008.01 1008.50
999.39 999.43 998.85 999.47 999.66 1000.22 1000.14 1000.50 999.94 999.46 998.72 997.59 997.14 996.20 995.37 995.99 997.38 998.13 998.57 998.83 999.44 999.87 1000.54 1000.84 1000.83 1000.52 999.79 998.22 997.09 997.02 998.18 999.98 1001.06 1001.95 1001.73 1002.00 1002.28 1002.80 1003.49 1004.58 1005.40 1006.60 1007.66 1008.20
999.23 998.95 999.96 999.62 999.59 999.86 999.66 999.58 999.66 1000.23 998.68 997.09 996.86 996.57 996.95 997.22 997.55 998.21 998.98 999.78 1000.71 1001.20 1001.82 1002.07 1002.14 1001.84 1000.27 999.19 996.93 996.91 998.71 1000.29 1001.13 1001.81 1001.64 1001.83 1002.13 1002.40 1003.14 1004.43 1005.25 1006.27 1007.22 1007.91
998.04 999.45 999.64 999.56 999.26 999.66 999.81 999.44 999.69 999.25 998.50 997.32 996.35 996.53 997.31 998.04 998.61 999.29 999.91 1001.04 1002.17 1002.52 1003.05 1003.54 1003.60 1003.06 1001.32 999.34 996.45 996.66 998.96 1000.14 1001.07 1001.72 1001.87 1002.13 1002.01 1002.77 1003.12 1004.36 1005.22 1005.81 1006.49 1007.55
998.71 999.50 999.54 999.68 999.14 998.81 998.92 999.00 999.17 999.22 999.26 998.51 997.80 997.88 998.36 998.99 999.67 1000.42 1001.91 1003.00 1003.37 1003.88 1004.76 1005.25 1005.22 1004.42 1002.67 1000.34 997.14 998.19 999.38 1000.41 1000.99 1001.84 1002.20 1002.54 1002.26 1002.84 1003.30 1004.16 1004.91 1005.62 1006.33 1007.27
999.30 999.47 999.32 999.13 998.81 999.73 998.69 998.94 999.35 999.38 999.42 999.04 998.65 999.27 999.58 999.94 1000.66 1002.31 1003.30 1004.39 1005.02 1005.73 1006.22 1006.53 1006.53 1005.74 1004.34 1003.09 1001.37 1000.08 1000.24 1000.93 1001.46 1002.14 1002.58 1002.98 1003.01 1003.17 1003.80 1004.31 1004.78 1005.46 1006.03 1006.97
1000.59 999.67 999.11 999.49 999.37 999.52 998.84 999.08 998.85 999.59 999.81 999.64 999.45 999.90 999.81 1000.77 1002.25 1004.13 1005.42 1006.56 1007.09 1007.34 1007.36 1007.64 1007.51 1007.12 1006.35 1005.45 1004.16 1002.77 1001.51 1001.72 1002.07 1002.38 1002.68 1003.12 1003.36 1003.69 1004.12 1004.41 1004.91 1005.62 1006.08 1006.88
1002.23 1000.29 999.20 998.79 998.38 998.73 999.00 998.94 999.48 999.80 999.71 999.49 999.58 999.86 1000.57 1002.95 1004.49 1006.45 1007.75 1008.52 1008.93 1008.98 1008.86 1009.15 1008.81 1008.62 1008.12 1007.48 1006.52 1005.32 1004.14 1003.02 1002.59 1002.84 1002.97 1003.21 1003.64 1004.09 1004.40 1004.53 1004.76 1005.43 1006.02 1006.37
1003.51 1002.11 1001.49 999.03 998.71 999.15 999.79 1000.01 1000.19 1000.32 1000.43 1000.58 1000.81 1001.20 1002.84 1004.83 1006.83 1008.27 1009.30 1009.93 1010.30 1010.62 1010.72 1010.81 1010.41 1009.82 1009.73 1009.22 1008.43 1007.46 1006.34 1005.08 1004.41 1004.21 1004.07 1004.11 1004.22 1004.67 1004.65 1005.04 1004.87 1005.29 1005.96 1006.36
1004.69 1003.12 1002.29 1000.98 1000.50 1000.46 1000.70 1000.89 1000.98 1001.20 1001.55 1001.63 1001.63 1002.83 1004.01 1006.07 1008.07 1009.72 1010.78 1011.49 1011.96 1012.31 1012.48 1012.27 1012.11 1011.58 1011.01 1010.92 1010.18 1009.35 1008.27 1007.46 1006.70 1006.20 1006.19 1006.18 1005.81 1006.09 1006.05 1006.09 1005.90 1006.07 1006.72 1007.26
1005.09 1003.75 1003.01 1002.24 1001.85 1001.56 1001.99 1001.91 1001.55 1001.82 1002.51 1002.70 1003.08 1004.72 1005.70 1008.04 1010.16 1011.73 1012.48 1013.03 1013.36 1013.64 1013.73 1013.59 1013.50 1013.15 1012.23 1012.25 1011.73 1011.00 1010.36 1009.60 1008.80 1008.01 1007.88 1007.84 1007.80 1007.58 1007.43 1007.46 1007.41 1007.90 1008.51 1009.06
1005.10 1004.07 1003.28 1003.03 1002.65 1002.31 1003.31 1003.36 1003.22 1003.29 1004.81 1005.71 1005.49 1006.36 1007.65 1010.17 1012.27 1013.47 1014.17 1014.37 1014.74 1014.66 1014.24 1014.09 1014.18 1013.63 1013.45 1012.91 1012.46 1012.36 1011.82 1011.63 1010.85 1010.00 1009.76 1009.79 1009.66 1009.35 1008.60 1008.48 1008.87 1009.34 1009.89 1010.44
1005.63 1004.61 1004.02 1003.43 1003.23 1004.55 1004.86 1005.50 1005.38 1004.84 1007.14 1007.94 1008.30 1008.89 1010.11 1011.76 1012.63 1014.54 1015.51 1015.68 1015.74 1015.40 1014.75 1014.20 1013.96 1014.27 1014.27 1013.59 1013.39 1013.29 1013.24 1013.49 1011.55 1010.94 1012.44 1011.65 1011.39 1011.25 1010.52 1010.17 1010.67 1010.77 1010.69 1012.22
1005.76 1005.26 1004.84 1004.92 1005.19 1006.27 1008.01 1007.66 1007.10 1006.65 1008.42 1010.13 1010.23 1011.02 1011.68 1012.71 1013.58 1015.71 1016.51 1016.69 1016.36 1015.87 1015.10 1014.71 1014.41 1014.58 1014.55 1014.47 1014.11 1013.72 1013.88 1013.39 1013.03 1013.71 1013.69 1013.17 1013.27 1011.83 1012.92 1011.03 1011.32 1011.99 1011.23 1013.84
1006.49 1006.73 1006.67 1007.05 1007.39 1009.05 1010.88 1009.87 1008.49 1008.87 1012.78 1012.56 1012.77 1013.30 1013.55 1014.49 1016.04 1016.89 1017.26 1017.32 1017.01 1016.07 1015.56 1015.30 1015.23 1015.45 1015.64 1015.30 1015.18 1014.80 1014.56 1014.66 1014.57 1014.24 1014.28 1014.69 1013.00 1014.48 1013.23 1012.71 1012.17 1012.32 1012.30 1013.06
1008.37 1008.63 1008.43 1008.97 1009.85 1012.01 1013.14 1011.13 1012.29 1014.92 1014.89 1014.70 1014.82 1015.08 1015.47 1016.23 1017.05 1017.55 1017.87 1018.03 1017.72 1017.09 1015.95 1015.68 1015.76 1016.24 1016.47 1016.23 1015.66 1016.28 1015.82 1015.56 1015.79 1015.79 1016.63 1015.83 1014.31 1014.57 1014.12 1012.98 1013.06 1013.49 1013.85 1014.35
1010.31 1011.28 1011.67 1012.92 1014.09 1015.33 1015.69 1015.81 1016.42 1016.31 1016.34 1016.38 1016.26 1016.28 1016.48 1017.08 1017.69 1018.08 1018.24 1018.31 1018.04 1017.17 1016.58 1016.35 1016.52 1016.82 1017.11 1017.28 1017.19 1016.83 1017.05 1016.83 1016.65 1016.67 1017.20 1016.27 1015.87 1015.19 1014.25 1015.63 1015.27 1014.75 1015.10 1015.33
1012.03 1012.31 1013.22 1014.45 1015.68 1016.33 1016.72 1017.01 1017.33 1017.41 1017.49 1017.53 1017.27 1017.13 1017.10 1017.47 1017.98 1018.22 1018.25 1018.10 1017.82 1017.65 1017.39 1017.17 1017.32 1017.71 1018.08 1018.34 1018.12 1017.97 1017.58 1017.30 1017.31 1016.78 1016.20 1016.15 1016.16 1016.49 1017.46 1017.10 1017.03 1017.14 1017.08 1017.00
1013.22 1013.52 1014.45 1015.74 1016.58 1017.20 1017.78 1018.16 1018.15 1018.12 1018.02 1017.85 1017.74 1017.70 1017.61 1017.63 1017.90 1018.00 1018.22 1018.38 1018.53 1018.50 1018.33 1018.43 1018.46 1018.69 1018.98 1019.25 1019.19 1018.70 1018.18 1017.64 1017.62 1017.76 1017.76 1017.69 1018.38 1018.71 1018.92 1019.38 1019.88 1019.11 1019.41 1019.05
1015.00 1015.67 1016.01 1016.68 1017.65 1017.97 1018.75 1019.10 1019.15 1019.06 1018.89 1018.44 1018.20 1018.21 1018.40 1018.36 1018.60 1018.88 1019.26 1019.60 1019.64 1019.70 1019.60 1019.56 1019.83 1020.16 1020.30 1020.35 1020.46 1020.23 1019.77 1019.07 1018.51 1018.36 1018.44 1018.45 1018.71 1018.81 1019.12 1019.72 1021.14 1020.79 1020.52 1020.15
Wind_Speed
23 22 26 33 31 25 21 19 17 15 19 11 20 21 19 21 16 16 14 13 12 14 14 15 15 15 13 13 13 15 17 18 13 10 12 9 11 8 9 7 14 13 11 11
22 27 32 26 28 27 14 5 20 24 11 15 15 16 17 18 18 18 17 16 18 18 18 18 17 16 17 16 15 17 18 20 16 10 11 9 10 9 9 9 10 11 11 11
26 27 27 27 25 23 18 20 21 16 17 21 16 18 21 21 17 17 15 19 20 10 11 11 13 15 15 15 15 18 19 20 18 18 13 11 10 7 9 8 9 8 9 10
25 28 23 27 22 21 23 23 22 20 14 16 17 15 18 19 19 17 12 3 1 6 8 11 13 17 18 17 15 17 18 20 18 21 17 18 12 10 9 10 9 6 10 8
19 22 20 21 18 18 17 15 20 20 18 17 16 9 11 11 11 10 7 3 4 4 7 10 12 13 15 17 15 14 17 18 19 20 18 14 15 10 9 8 8 9 8 10
22 16 17 18 16 16 16 13 11 13 14 15 18 15 11 11 12 10 3 4 2 5 10 12 13 14 14 14 15 15 17 16 18 18 20 20 17 13 10 9 7 8 7 6
10 15 19 10 15 10 11 12 6 9 9 12 19 16 6 14 10 5 2 4 5 8 12 14 15 14 17 18 16 14 18 17 17 16 21 19 17 13 12 13 7 10 7 6
9 13 13 13 18 16 20 22 8 7 11 12 10 7 6 15 8 5 1 4 9 13 15 16 17 17 17 17 17 15 16 16 16 15 22 17 16 10 9 12 7 9 6 7
14 4 14 14 13 17 17 16 9 6 6 3 10 14 10 10 8 5 7 11 14 14 15 18 18 18 18 23 17 17 15 15 14 15 15 16 15 13 11 12 9 9 11 8
4 5 15 13 13 16 17 17 8 4 3 4 10 15 9 6 7 8 14 14 12 14 16 17 17 21 21 28 12 13 16 15 14 13 10 13 14 13 11 12 10 9 12 13
5 10 11 10 12 13 10 13 7 7 5 4 4 8 10 11 8 9 11 12 13 14 15 15 17 19 21 27 6 14 13 8 13 10 10 9 12 13 11 10 12 9 10 12
8 3 13 18 17 6 18 14 13 4 8 1 6 6 7 10 11 13 11 12 15 15 14 15 17 18 20 21 20 8 8 8 10 9 9 9 7 12 10 9 11 9 10 11
2 6 12 8 8 14 12 10 8 4 1 5 3 5 3 14 15 12 13 14 16 17 18 16 17 19 20 19 19 17 4 8 9 9 10 10 9 11 9 7 9 9 9 10
13 8 10 8 11 12 8 10 7 7 4 4 4 5 17 17 17 15 13 13 14 17 20 19 16 18 19 18 18 17 14 9 8 8 10 10 9 10 8 9 10 11 11 12
11 5 10 1 15 11 9 9 7 6 2 4 10 8 15 13 12 12 11 12 14 16 17 18 17 16 18 18 18 17 15 14 13 14 12 8 6 7 8 8 8 9 7 5
11 5 11 13 13 13 10 6 3 4 3 2 3 13 14 15 13 13 12 10 10 13 15 17 18 16 16 17 16 17 16 16 13 15 14 11 11 11 10 9 11 8 9 9
5 4 3 9 6 13 10 8 6 10 13 12 11 15 12 12 14 12 9 10 11 10 12 13 13 13 12 12 14 15 16 15 15 16 15 14 12 11 10 9 12 12 12 12
9 5 4 4 6 6 10 11 7 15 16 16 15 15 12 13 13 12 12 11 10 10 11 10 9 11 11 12 12 12 13 14 13 16 16 13 12 12 11 12 13 13 12 12
6 6 3 1 7 14 8 10 9 8 13 16 14 16 10 11 11 11 11 10 8 9 10 10 9 7 7 10 11 11 12 10 14 17 15 13 12 12 11 13 14 11 13 10
7 5 4 0 4 4 7 17 14 11 5 16 16 14 12 7 3 3 8 8 8 7 9 11 13 13 12 12 9 11 12 13 16 13 12 11 11 12 11 8 11 9 16 7
5 5 6 2 2 8 12 21 18 6 7 13 13 11 12 5 4 5 6 8 7 10 12 10 12 12 13 13 12 13 13 14 11 13 12 10 12 8 11 10 10 10 11 11
8 6 5 4 2 5 20 8 8 6 8 10 10 10 11 10 8 8 9 10 10 8 9 11 12 12 13 14 13 13 13 11 10 11 9 11 14 11 8 15 12 12 10 10
3 6 4 6 4 4 8 9 7 6 7 8 9 8 9 9 8 8 7 7 7 10 11 11 11 12 13 13 12 13 11 10 10 11 11 12 13 14 16 13 13 10 10 9
4 7 3 4 6 8 8 8 9 8 8 7 7 6 6 6 5 5 5 4 6 9 10 10 12 13 13 12 12 11 9 9 10 11 13 14 15 15 14 10 11 10 8 7
5 7 5 4 7 8 9 9 8 8 8 8 9 8 8 7 8 8 8 9 9 9 10 10 12 12 13 13 13 13 11 9 8 9 9 10 9 11 12 13 11 10 12 12
5 5 4 4 3 5 6 6 8 8 8 8 7 7 8 8 8 7 8 8 9 10 11 11 12 12 12 13 13 13 13 13 9 9 8 8 6 7 8 9 10 21 20 24
Wind_Direction
210 217 211 214 217 229 250 259 295 263 258 226 213 239 241 222 206 222 222 233 241 242 237 227 227 234 209 228 217 209 191 194 175 194 187 186 192 188 198 205 212 221 215 214
232 222 221 222 218 228 235 281 259 252 243 257 252 248 252 246 234 222 226 234 238 240 243 244 244 240 236 218 221 214 205 195 182 189 190 190 200 198 205 208 230 218 228 210
233 217 223 228 224 224 203 215 234 262 280 304 247 256 254 254 261 249 238 242 247 272 295 296 290 277 263 246 210 225 212 201 180 190 199 199 189 194 198 199 226 213 213 191
225 227 204 224 220 220 215 212 235 250 242 241 247 256 259 227 216 219 228 77 339 285 274 269 268 270 259 250 229 223 217 207 180 197 197 194 191 190 198 205 211 178 200 182
236 219 213 219 215 216 225 226 213 228 241 248 232 245 264 254 204 163 138 170 263 282 293 301 292 294 273 263 236 211 220 203 178 199 206 186 203 191 180 203 180 164 174 175
241 196 225 225 200 222 238 240 237 224 241 244 238 226 231 195 166 121 117 202 312 328 333 317 315 302 286 260 255 197 213 176 183 204 203 194 197 189 165 189 173 159 167 156
222 268 198 209 180 190 218 208 198 222 217 231 212 213 232 104 107 114 266 288 345 2 342 331 331 323 313 297 243 201 209 182 188 198 203 192 194 185 172 185 173 162 167 159
174 186 165 198 210 189 214 191 204 197 202 197 145 216 166 117 122 152 242 6 2 5 349 340 334 323 298 279 268 202 193 192 188 192 207 188 188 178 179 185 167 171 170 162
179 111 148 207 185 194 206 222 153 266 227 166 165 103 121 140 154 70 13 21 18 351 348 342 337 324 313 305 248 208 164 188 184 195 205 189 185 172 181 171 171 170 173 171
203 120 191 190 186 204 208 213 208 243 235 224 171 168 117 119 60 10 8 11 358 355 351 348 346 332 330 317 227 175 160 187 182 187 194 195 179 174 173 159 174 175 175 168
279 152 174 199 209 201 195 212 229 188 280 290 189 99 80 49 27 26 20 9 353 14 1 360 354 347 346 343 217 138 156 193 163 178 169 192 179 175 174 161 167 171 173 170
248 284 185 202 208 236 197 175 200 212 188 295 341 97 98 46 34 46 33 25 23 19 14 11 7 355 1 355 345 126 152 143 160 163 170 168 190 176 169 170 177 175 163 176
9 241 180 157 220 161 230 181 181 90 138 197 250 112 157 49 34 57 57 42 33 30 26 25 21 8 6 360 354 348 141 144 157 158 163 165 170 181 169 177 167 163 171 185
326 243 195 212 190 179 162 187 154 195 248 189 226 34 58 47 53 66 59 51 38 27 28 30 30 22 7 5 2 357 4 13 157 160 166 160 162 173 169 187 183 174 183 182
8 83 39 349 133 151 141 146 166 149 10 311 27 357 70 77 74 70 67 53 40 32 26 17 18 31 17 8 3 4 8 19 40 49 54 52 127 150 164 196 201 162 178 179
338 43 115 75 95 104 97 87 100 67 51 330 289 77 78 85 79 62 52 49 45 33 26 20 16 14 32 7 7 6 13 19 30 50 41 36 56 56 52 44 58 88 75 49
331 346 22 97 104 127 82 26 58 92 51 8 34 14 78 73 64 40 54 45 38 34 29 20 10 10 14 20 11 14 11 18 28 44 41 33 34 51 52 56 65 62 67 67
334 353 321 109 213 120 78 33 13 86 53 22 4 29 41 93 86 57 39 42 24 21 25 32 15 13 4 12 32 22 21 21 30 37 35 30 32 34 49 55 63 64 60 62
9 314 35 352 66 117 113 33 15 341 65 26 9 16 105 128 113 63 37 38 28 14 17 33 45 34 9 17 15 35 38 23 37 40 22 26 31 21 44 67 59 73 76 60
30 341 323 261 153 169 34 357 351 310 104 8 7 17 356 166 314 58 31 20 18 21 22 26 36 36 24 25 24 30 39 34 39 36 26 23 38 38 36 69 79 71 84 94
12 24 13 45 21 100 358 317 312 257 32 9 24 28 33 77 47 65 35 28 5 18 30 37 43 37 31 28 33 35 31 41 32 33 31 38 39 51 35 57 58 66 71 84
6 328 35 319 331 94 353 16 32 333 22 29 43 50 71 81 74 56 43 31 24 1 33 41 47 42 32 29 36 36 31 31 46 56 45 49 54 40 48 49 51 57 61 55
54 13 7 19 57 51 32 51 40 23 49 28 42 39 65 72 67 58 50 33 14 27 31 39 51 55 43 35 34 35 34 24 41 55 55 48 52 49 41 36 50 55 50 61
60 12 63 194 74 66 56 61 52 49 51 39 46 52 66 80 89 93 93 68 46 39 41 33 45 47 49 40 35 29 23 57 43 39 50 56 48 45 44 49 44 36 41 55
12 343 355 91 128 113 70 47 38 45 41 41 46 36 30 38 43 39 45 46 38 32 41 47 45 42 42 38 33 24 17 30 63 66 65 65 76 79 69 55 41 58 50 43
5 11 343 57 42 63 73 54 42 41 26 23 28 44 40 34 43 49 53 47 48 43 33 41 44 49 43 40 36 29 21 19 36 48 49 46 58 76 85 85 71 54 57 58